{"data":{"norad_id":63590,"epoch":"2026-09-20T03:11:05.244576Z","epoch_age_seconds":184302,"freshness":"STALE","line1":"1 63590U 25076X   26263.13269959  .00008102  00000+0  30354-3 0  9994","line2":"2 63590  43.0007 303.9412 0001336 271.5047  88.5652 15.27586263 81569","mean_motion":15.27586263,"eccentricity":0.0001336,"inclination_deg":43.0007,"raan_deg":303.9412,"arg_perigee_deg":271.5047,"mean_anomaly_deg":88.5652,"bstar":0.00030354,"rev_number":8156,"period_min":94.26636222638,"perigee_km":482.11369047168,"apogee_km":483.94699438557,"semimajor_km":6861.1673424286,"source":"CELESTRAK","updated_at":"2026-09-21T09:00:35.049048Z"}}